EW1472 Weather Reports


Display with metric or nautical units.
time (UTC)temp
F
wind
direction
speed
MPH
gust
MPH
rain 1hr
in
rain 24hr
in
rain mn
in
humidity
%
barometer
mb
20260509224006 61 329 0.0 0.0 0.00 0.00 0.00 92 1024.9
20260509222015 61 329 0.0 0.0 0.00 0.00 0.00 92 1024.6
20260509221007 61 329 0.0 0.0 0.00 0.00 0.00 92 1024.5
20260509220005 61 329 0.0 0.0 0.00 0.00 0.00 92 1024.4
20260509214005 60 329 1.0 1.0 0.00 0.00 0.00 93 1024.1
20260509213006 60 330 0.0 0.0 0.00 0.00 0.00 94 1024.1
20260509212005 59 142 0.0 0.0 0.00 0.00 0.00 96 1024.0
20260509211005 58 142 0.0 0.0 0.00 0.00 0.00 94 1023.9
20260509205006 59 323 0.0 0.0 0.00 0.00 0.00 95 1023.4
20260509204004 58 323 0.0 0.0 0.00 0.00 0.00 94 1023.3
20260509203005 57 323 0.0 0.0 0.00 0.00 0.00 93 1023.0
20260509202005 57 323 0.0 0.0 0.00 0.00 0.00 94 1023.1
20260509201006 57 330 0.0 0.0 0.00 0.00 0.00 94 1023.2
20260509200005 57 330 0.0 0.0 0.00 0.00 0.00 94 1022.9
20260509195005 57 272 0.0 0.0 0.00 0.00 0.00 93 1022.8
20260509194004 57 272 0.0 0.0 0.00 0.00 0.00 93 1022.8
20260509193004 57 201 0.0 0.0 0.00 0.00 0.00 93 1022.9
20260509192004 57 200 0.0 0.0 0.00 0.00 0.00 94 1022.9
20260509191005 57 200 0.0 0.0 0.00 0.00 0.00 93 1022.7
20260509190006 57 200 0.0 0.0 0.00 0.00 0.00 94 1022.7
20260509185005 57 200 0.0 0.0 0.00 0.00 0.00 93 1022.5
20260509184004 56 200 0.0 0.0 0.00 0.00 0.00 93 1022.4
20260509183004 56 200 0.0 0.0 0.00 0.00 0.00 93 1022.5
20260509182005 56 200 0.0 0.0 0.00 0.00 0.00 92 1022.5
20260509181007 56 200 0.0 0.0 0.00 0.00 0.00 93 1022.5
20260509180005 56 200 0.0 0.0 0.00 0.00 0.00 94 1022.4
20260509175005 56 200 0.0 0.0 0.00 0.00 0.00 93 1022.4
20260509174005 56 200 0.0 0.0 0.00 0.00 0.00 94 1022.3
20260509173005 55 200 0.0 0.0 0.00 0.00 0.00 94 1022.2
20260509172004 55 200 0.0 0.0 0.00 0.00 0.00 93 1022.4
20260509171005 55 200 0.0 0.0 0.00 0.00 0.00 94 1022.3
20260509170006 55 200 0.0 0.0 0.00 0.00 0.00 93 1022.3
20260509165005 55 200 0.0 0.0 0.00 0.00 0.00 94 1022.3
20260509164005 55 200 0.0 0.0 0.00 0.00 0.00 93 1022.3
20260509163005 55 200 0.0 0.0 0.00 0.00 0.00 93 1022.4
20260509162005 55 200 0.0 0.0 0.00 0.00 0.00 93 1022.4
20260509161005 55 200 0.0 0.0 0.00 0.00 0.00 94 1022.5
20260509160005 55 200 0.0 0.0 0.00 0.00 0.00 93 1022.3
20260509155005 55 200 0.0 0.0 0.00 0.00 0.00 93 1022.4
20260509154005 56 200 0.0 1.0 0.00 0.00 0.00 93 1022.4
20260509153005 55 200 0.0 0.0 0.00 0.00 0.00 93 1022.4
20260509151005 56 200 0.0 0.0 0.00 0.00 0.00 94 1022.5
20260509145005 55 200 0.0 0.0 0.00 0.00 0.00 93 1022.6
20260509144005 55 200 0.0 0.0 0.00 0.00 0.00 94 1022.5
20260509143005 56 200 0.0 0.0 0.00 0.00 0.00 94 1022.5
20260509142005 56 200 0.0 0.0 0.00 0.00 0.00 95 1022.6
20260509140007 56 200 0.0 0.0 0.00 0.00 0.00 95 1022.6
20260509135005 56 200 0.0 0.0 0.00 0.00 0.00 95 1022.7
20260509134005 56 200 0.0 0.0 0.00 0.00 0.00 95 1022.9
20260509133005 56 200 0.0 0.0 0.00 0.00 0.00 95 1023.0
20260509132005 56 200 0.0 0.0 0.00 0.00 0.00 95 1023.1
20260509131005 56 200 0.0 0.0 0.00 0.00 0.00 95 1023.1
20260509130005 56 200 0.0 0.0 0.00 0.00 0.00 95 1023.2
20260509125005 56 200 0.0 0.0 0.00 0.00 0.00 95 1023.2
20260509124005 56 200 0.0 0.0 0.00 0.00 0.00 95 1023.3
20260509123005 56 200 0.0 0.0 0.00 0.00 0.00 95 1023.3
20260509122010 56 200 0.0 0.0 0.00 0.00 0.00 95 1023.2
20260509121006 56 200 0.0 0.0 0.00 0.00 0.00 94 1023.2
20260509120009 56 200 0.0 0.0 0.00 0.00 0.00 94 1023.1
20260509115005 56 200 0.0 0.0 0.00 0.00 0.00 94 1023.2
20260509114010 56 200 0.0 0.0 0.00 0.00 0.00 94 1023.4
20260509113005 56 200 0.0 0.0 0.00 0.00 0.00 94 1023.4
20260509112005 57 200 0.0 0.0 0.00 0.00 0.00 94 1023.1
20260509111005 57 200 0.0 0.0 0.00 0.00 0.00 94 1023.2
20260509110005 57 200 0.0 0.0 0.00 0.00 0.00 94 1023.2
20260509104005 57 200 0.0 0.0 0.00 0.00 0.00 93 1023.1
20260509103005 57 200 0.0 0.0 0.00 0.00 0.00 93 1023.1
20260509102005 57 200 0.0 0.0 0.00 0.00 0.00 93 1023.1
20260509101005 57 200 0.0 0.0 0.00 0.00 0.00 93 1023.1
20260509100006 57 200 0.0 0.0 0.00 0.00 0.00 93 1023.0
20260509095005 58 200 0.0 0.0 0.00 0.00 0.00 92 1023.0
20260509094005 58 200 0.0 0.0 0.00 0.00 0.00 92 1023.0
20260509093012 58 200 0.0 0.0 0.00 0.00 0.00 92 1022.8
20260509092005 58 200 0.0 0.0 0.00 0.00 0.00 92 1022.7
20260509091005 58 200 0.0 0.0 0.00 0.00 0.00 91 1022.6
20260509090006 58 200 0.0 0.0 0.00 0.00 0.00 91 1022.5
20260509085005 58 200 0.0 0.0 0.00 0.00 0.00 91 1022.4
20260509081005 59 200 0.0 0.0 0.00 0.00 0.00 91 1021.9
20260509080007 60 200 0.0 0.0 0.00 0.00 0.00 92 1021.8
20260509075006 60 200 0.0 0.0 0.00 0.00 0.00 91 1021.7
20260509074006 60 200 0.0 0.0 0.00 0.00 0.00 91 1021.6
20260509073005 60 200 0.0 0.0 0.00 0.00 0.00 92 1021.4
20260509072005 61 200 0.0 0.0 0.00 0.00 0.00 91 1021.5
20260509070006 62 200 0.0 0.0 0.00 0.00 0.00 90 1021.1
20260509065010 62 200 0.0 0.0 0.00 0.00 0.00 89 1020.9
20260509064005 62 200 0.0 0.0 0.00 0.00 0.00 89 1020.8
20260509063010 63 200 0.0 2.0 0.00 0.00 0.00 88 1020.6
20260509062005 62 114 0.0 0.0 0.00 0.00 0.00 88 1020.6
20260509061005 62 119 0.0 1.0 0.00 0.00 0.00 85 1020.4
20260509055005 62 314 0.0 0.0 0.00 0.00 0.00 88 1020.3
20260509054006 62 314 0.0 1.0 0.00 0.00 0.00 89 1020.2
20260509053005 62 314 0.0 0.0 0.00 0.00 0.00 89 1020.3
20260509052005 62 314 0.0 1.0 0.00 0.00 0.00 89 1020.2
20260509051005 62 314 0.0 1.0 0.00 0.00 0.00 88 1020.1
20260509044005 63 314 0.0 0.0 0.00 0.00 0.00 88 1020.0
20260509043005 63 314 0.0 0.0 0.00 0.00 0.00 87 1020.1
20260509042006 63 314 0.0 0.0 0.00 0.00 0.00 86 1020.1
20260509041005 64 314 0.0 0.0 0.00 0.00 0.00 87 1020.2
20260509035005 64 314 0.0 0.0 0.00 0.00 0.00 87 1020.1
20260509034005 64 314 0.0 0.0 0.00 0.00 0.00 86 1020.1
20260509033005 64 314 0.0 0.0 0.00 0.00 0.00 85 1020.2
20260509032005 65 314 0.0 1.0 0.00 0.00 0.00 86 1020.2
20260509031005 65 314 0.0 0.0 0.00 0.00 0.00 84 1020.3
20260509030006 66 314 0.0 1.0 0.00 0.00 0.00 83 1020.5
20260509025005 66 224 0.0 0.0 0.00 0.00 0.00 82 1020.6
20260509024006 66 224 0.0 1.0 0.00 0.00 0.00 76 1020.6
20260509023005 66 18 0.0 0.0 0.00 0.00 0.00 81 1020.7
20260509021006 68 179 0.0 0.0 0.00 0.00 0.00 80 1021.0
20260509020005 67 248 0.0 1.0 0.00 0.00 0.00 75 1021.3
20260509015006 67 134 0.0 0.0 0.00 0.00 0.00 81 1021.4
20260509014005 67 308 0.0 0.0 0.00 0.00 0.00 81 1021.4
20260509013006 67 302 0.0 2.0 0.00 0.00 0.00 82 1021.4
20260509012005 67 307 0.0 0.0 0.00 0.00 0.00 82 1021.4
20260509011005 67 16 0.0 0.0 0.00 0.00 0.00 83 1021.6
20260509005006 67 16 0.0 0.0 0.00 0.00 0.00 84 1021.5
20260509004005 66 16 0.0 0.0 0.00 0.00 0.00 85 1021.6
20260509003005 65 16 0.0 0.0 0.00 0.00 0.00 85 1021.8
20260509002005 64 16 0.0 0.0 0.00 0.00 0.00 88 1022.0
20260509001006 63 16 0.0 0.0 0.00 0.00 0.00 89 1021.9
20260508235006 61 16 0.0 0.0 0.00 0.00 0.00 89 1021.9
20260508234005 61 16 0.0 0.0 0.00 0.00 0.00 89 1021.8
20260508233006 60 17 0.0 0.0 0.00 0.00 0.00 89 1021.7
20260508232006 60 17 0.0 0.0 0.00 0.00 0.00 89 1021.8
20260508231005 60 17 0.0 0.0 0.00 0.00 0.00 89 1021.8
20260508230006 59 17 0.0 0.0 0.00 0.00 0.00 90 1021.7
20260508225005 59 17 0.0 0.0 0.00 0.00 0.00 90 1021.6